This demonstration page uses our WeatherBlox Daily Observations layout. Learn more.

38.88101, -77.10428

Hourly Observations for April 30, 2018

Temp ( °F °C ) Dew Point ( °F °C ) Humidity (%) Winds ( mph kmh ) Pressure ( in mb ) Visibility ( mi km ) Precip ( " mm )
12:52 am 00:52 Clear 47 8.3 33 0.6 59 59 Calm 30.18 1022 10 16.0934 0 0
1:52 am 01:52 Mostly Clear 45 7.2 33 0.6 63 63 Calm 30.17 1022 10 16.0934 0 0
2:52 am 02:52 Mostly Clear 46 7.8 29 -1.7 51 51 NW 9 15 30.17 1022 10 16.0934 0 0
3:52 am 03:52 Mostly Clear 44 6.7 33 0.6 65 65 Calm 30.19 1023 10 16.0934 0 0
4:52 am 04:52 Clear 43 6.1 31 -0.6 63 63 SSW 5 7 30.19 1023 10 16.0934 0 0
5:52 am 05:52 Mostly Clear 42 5.6 26 -3.3 53 53 WSW 5 7 30.2 1023 10 16.0934 0 0
6:52 am 06:52 Partly Cloudy 46 7.8 21 -6.1 37 37 W 12 19 30.21 1023 10 16.0934 0 0
7:52 am 07:52 Partly Cloudy 50 10 20 -6.7 30 30 W 9 15 30.22 1024 10 16.0934 0 0
8:52 am 08:52 Partly Cloudy 53 11.7 19 -7.2 26 26 NNW 14 22 30.23 1024 10 16.0934 0 0
9:52 am 09:52 Partly Cloudy 56 13.3 21 -6.1 26 26 NW 14 22 30.23 1024 10 16.0934 0 0
10:52 am 10:52 Partly Cloudy 59 15 20 -6.7 22 22 NW 14 22 30.22 1023 10 16.0934 0 0
11:52 am 11:52 Mostly Sunny 61 16.1 19 -7.2 20 20 WNW 14 22 30.19 1023 10 16.0934 0 0
12:52 pm 12:52 Mostly Sunny 65 18.3 24 -4.4 21 21 NW 15 24 30.17 1022 10 16.0934 0 0
1:52 pm 13:52 Mostly Sunny 67 19.4 23 -5 19 19 WNW 16 26 30.14 1021 10 16.0934 0 0
2:52 pm 14:52 Sunny 69 20.6 23 -5 17 17 NW 16 26 30.1 1019 10 16.0934 0 0
3:52 pm 15:52 Sunny 71 21.7 23 -5 16 16 W 20 31 30.08 1019 10 16.0934 0 0
4:52 pm 16:52 Sunny 73 22.8 23 -5 15 15 WNW 20 31 30.07 1018 10 16.0934 0 0
5:52 pm 17:52 Sunny 72 22.2 22 -5.6 15 15 WNW 15 24 30.06 1018 10 16.0934 0 0
6:52 pm 18:52 Sunny 71 21.7 22 -5.6 16 16 WNW 16 26 30.05 1018 10 16.0934 0 0
7:52 pm 19:52 Sunny 70 21.1 21 -6.1 16 16 WNW 10 17 30.06 1018 10 16.0934 0 0
8:52 pm 20:52 Clear 68 20 22 -5.6 17 17 WNW 6 9 30.08 1019 10 16.0934 0 0
9:52 pm 21:52 Clear 65 18.3 25 -3.9 22 22 W 8 13 30.09 1019 10 16.0934 0 0
10:52 pm 22:52 Clear 63 17.2 26 -3.3 25 25 W 7 11 30.09 1019 10 16.0934 0 0
11:52 pm 23:52 Clear 62 16.7 26 -3.3 25 25 W 6 9 30.1 1019 10 16.0934 0 0

Powered by AerisWeather